Boonton, New Jersey, United States (07005)
Lat: 40.90N, Lon: 74.41W
Wx Zone: NJZ008
Local Info
Past Weather Observations for Friday, September 12, 2014

NOTE: This archive is for the closest National Weather Service station to Boonton. Information may differ from the station used for current weather conditions.

Click here for Long-term Archive

Time Weather Temperature Dewpoint Humidity Pressure Winds Precip Visibility
23:53
Clear
57°F / 14°C 46°F / 8°C 67% 30.21 in
(1023 mb)
NE 3.5 mph
(NE 6 kph)
- 10SM
22:53
Clear
61°F / 16°C 46°F / 8°C 59% 30.21 in
(1023 mb)
NE 4.6 mph
(NE 7 kph)
- 10SM
21:53
Clear
61°F / 16°C 46°F / 8°C 59% 30.21 in
(1023 mb)
NE 3.5 mph
(NE 6 kph)
- 10SM
20:53
Clear
63°F / 17°C 48°F / 9°C 59% 30.18 in
(1022 mb)
NE 5.8 mph
(NE 9 kph)
- 10SM
19:53
Clear
64°F / 18°C 48°F / 9°C 56% 30.18 in
(1022 mb)
Variable 4.6 mph
(Variable 7 kph)
- 10SM
18:53
Clear
68°F / 20°C 48°F / 9°C 49% 30.15 in
(1021 mb)
NE 6.9 mph
(NE 11 kph)
- 10SM
17:53
Clear
72°F / 22°C 50°F / 10°C 47% 30.12 in
(1020 mb)
ENE 9.2 mph
(ENE 15 kph)
- 10SM
16:53
Clear
75°F / 24°C 52°F / 11°C 44% 30.09 in
(1019 mb)
E 9.2 mph
(E 15 kph)
- 10SM
15:53
Clear
77°F / 25°C 48°F / 9°C 36% 30.09 in
(1019 mb)
Variable 3.5 mph
(Variable 6 kph)
- 10SM
14:53
Clear
77°F / 25°C 48°F / 9°C 36% 30.09 in
(1019 mb)
Variable 3.5 mph
(Variable 6 kph)
- 10SM
13:53
Clear
77°F / 25°C 48°F / 9°C 36% 30.09 in
(1019 mb)
NE 5.8 mph
(NE 9 kph)
- 10SM
12:53
Clear
75°F / 24°C 48°F / 9°C 39% 30.09 in
(1019 mb)
Calm - 10SM
11:53
Clear
72°F / 22°C 48°F / 9°C 44% 30.12 in
(1020 mb)
NNE 8.1 mph
(NNE 13 kph)
- 10SM
10:53
Clear
70°F / 21°C 48°F / 9°C 46% 30.12 in
(1020 mb)
Variable 5.8 mph
(Variable 9 kph)
- 10SM
09:53
Clear
66°F / 19°C 48°F / 9°C 52% 30.12 in
(1020 mb)
Variable 6.9 mph
(Variable 11 kph)
- 10SM
08:53
Clear
64°F / 18°C 48°F / 9°C 56% 30.12 in
(1020 mb)
NE 8.1 mph
(NE 13 kph)
- 10SM
07:53
Partly Cloudy
63°F / 17°C 48°F / 9°C 59% 30.12 in
(1020 mb)
N 5.8 mph
(N 9 kph)
- 10SM
06:53
Mostly Cloudy
59°F / 15°C 50°F / 10°C 72% 30.12 in
(1020 mb)
Calm - 10SM
05:53
Clear
55°F / 13°C 50°F / 10°C 82% 30.09 in
(1019 mb)
Calm - 10SM
05:17
Partly Cloudy
55°F / 13°C 50°F / 10°C 82% 30.09 in
(1019 mb)
Calm - 10SM
05:05
Mostly Cloudy
57°F / 14°C 50°F / 10°C 77% 30.06 in
(1018 mb)
Calm - 10SM
04:53
Partly Cloudy
57°F / 14°C 50°F / 10°C 77% 30.06 in
(1018 mb)
Calm - 10SM
03:53
Clear
59°F / 15°C 50°F / 10°C 72% 30.04 in
(1017 mb)
Calm - 10SM
02:53
Clear
61°F / 16°C 50°F / 10°C 68% 30.04 in
(1017 mb)
Calm - 10SM
01:53
Clear
63°F / 17°C 52°F / 11°C 68% 30.01 in
(1016 mb)
NE 3.5 mph
(NE 6 kph)
- 10SM
00:53
Clear
64°F / 18°C 54°F / 12°C 68% 30.01 in
(1016 mb)
Variable 3.5 mph
(Variable 6 kph)
- 10SM
Time Weather Temperature Dewpoint Humidity Pressure Winds Precip Visibility


Weather for websites

WeatherForYou.com, LLC is not responsible for any damages or problems caused by this service. Current weather conditions are obtained from the closest station including government and personal stations which may have varying degrees of accuracy. Weather forecasts are derived from the NOAA NDFD. Like all things, this site belongs to Jesus Christ... He just trusts me to maintain it. If you have any questions or comments email webmaster@weatherforyou.com

Copyright © 2014, WeatherForYou.com LLC. All rights reserved.